,,,PA_Meas_PMT16A,,PR_Meas_QMR101_102,,RH_Meas_QMH101,,SR_Meas_QMS101,,TA_Meas_QMH101,,GenWind,,GenWind,
date,time,status,PA,status,PR,status,RH,status,SR,status,TA,status,DirAvg,status,SpdAvg,
2010-09-03, 00:00:05,VALID,1004.63,VALID,0,VALID,80.889,VALID,0,VALID,27.6767,VALID,100,VALID,2.52227,
2010-09-03, 00:01:05,VALID,1004.65,VALID,0,VALID,80.8585,VALID,0,VALID,27.6767,VALID,111,VALID,2.38984,
2010-09-03, 00:02:05,VALID,1004.67,VALID,0,VALID,80.9272,VALID,0,VALID,27.6551,VALID,102,VALID,1.93008,
2010-09-03, 00:03:05,VALID,1004.65,VALID,0,VALID,80.9424,VALID,0,VALID,27.6572,VALID,95,VALID,1.58555,
2010-09-03, 00:04:05,VALID,1004.65,VALID,0,VALID,81.1026,VALID,0,VALID,27.6377,VALID,100,VALID,1.15078,
2010-09-03, 00:05:05,VALID,1004.6,VALID,0,VALID,81.1179,VALID,0,VALID,27.5987,VALID,125,VALID,0.995703,
2010-09-03, 00:06:05,VALID,1004.59,VALID,0,VALID,81.1942,VALID,0,VALID,27.5772,VALID,107,VALID,1.11172,
2010-09-03, 00:07:05,VALID,1004.63,VALID,0,VALID,81.1789,VALID,0,VALID,27.5382,VALID,53,VALID,1.64063,
2010-09-03, 00:08:05,VALID,1004.6,VALID,0,VALID,80.9424,VALID,0,VALID,27.5772,VALID,128,VALID,3.21875,
2010-09-03, 00:09:05,VALID,1004.56,VALID,0,VALID,80.6296,VALID,0,VALID,27.6377,VALID,109,VALID,2.34844,
2010-09-03, 00:10:05,VALID,1004.56,VALID,0,VALID,80.4771,VALID,0,VALID,27.6962,VALID,125,VALID,1.74688,
2010-09-03, 00:11:05,VALID,1004.58,VALID,0,VALID,80.5076,VALID,0,VALID,27.6572,VALID,85,VALID,1.19492,
2010-09-03, 00:12:05,VALID,1004.54,VALID,0,VALID,80.6296,VALID,0,VALID,27.6377,VALID,96,VALID,2.32852,
2010-09-03, 00:13:05,VALID,1004.59,VALID,0,VALID,80.7364,VALID,0,VALID,27.6377,VALID,87,VALID,1.38359,
2010-09-03, 00:14:05,VALID,1004.54,VALID,0,VALID,80.9119,VALID,0,VALID,27.5987,VALID,43,VALID,0.997656,
2010-09-03, 00:15:05,VALID,1004.55,VALID,0,VALID,81.034,VALID,0,VALID,27.5792,VALID,73,VALID,1.53672,
2010-09-03, 00:16:05,VALID,1004.55,VALID,0,VALID,81.1408,VALID,0,VALID,27.5598,VALID,104,VALID,1.85312,
2010-09-03, 00:17:05,VALID,1004.55,VALID,0,VALID,81.2628,VALID,0,VALID,27.5598,VALID,27,VALID,0.953125,
2010-09-03, 00:18:05,VALID,1004.51,VALID,0,VALID,81.4459,VALID,0,VALID,27.5208,VALID,77,VALID,2.50078,
2010-09-03, 00:19:05,VALID,1004.49,VALID,0,VALID,81.5527,VALID,0,VALID,27.5208,VALID,88,VALID,2.05938,
2010-09-03, 00:20:05,VALID,1004.46,VALID,0,VALID,81.6367,VALID,0,VALID,27.5208,VALID,98,VALID,1.64102,
2010-09-03, 00:21:05,VALID,1004.43,VALID,0,VALID,81.6138,VALID,0,VALID,27.5013,VALID,68,VALID,0.977734,
2010-09-03, 00:22:05,VALID,1004.45,VALID,0,VALID,81.6595,VALID,0,VALID,27.5208,VALID,70,VALID,1.26563,
2010-09-03, 00:23:05,VALID,1004.41,VALID,0,VALID,81.7663,VALID,0,VALID,27.5229,VALID,82,VALID,1.62695,
2010-09-03, 00:24:05,VALID,1004.42,VALID,0,VALID,81.9189,VALID,0,VALID,27.5013,VALID,74,VALID,1.31445,
2010-09-03, 00:25:05,VALID,1004.42,VALID,0,VALID,82.1707,VALID,0,VALID,27.4839,VALID,37,VALID,0.945703,
2010-09-03, 00:26:05,VALID,1004.42,VALID,0,VALID,82.5521,VALID,0,VALID,27.3844,VALID,5,VALID,0.538672,
2010-09-03, 00:27:05,VALID,1004.38,VALID,0,VALID,82.8649,VALID,0,VALID,27.2869,VALID,45,VALID,0.757031,
2010-09-03, 00:28:05,VALID,1004.37,VALID,0,VALID,83.2463,VALID,0,VALID,27.2285,VALID,6,VALID,0.391797,
2010-09-03, 00:29:05,VALID,1004.39,VALID,0,VALID,83.643,VALID,0,VALID,27.1311,VALID,62,VALID,0.652344,
2010-09-03, 00:30:05,VALID,1004.35,VALID,0,VALID,83.9177,VALID,0,VALID,27.0942,VALID,70,VALID,0.402344,
2010-09-03, 00:31:05,VALID,1004.36,VALID,0,VALID,84.0169,VALID,0,VALID,27.0531,VALID,66,VALID,1.35664,
2010-09-03, 00:32:05,VALID,1004.38,VALID,0,VALID,84.1542,VALID,0,VALID,27.0336,VALID,92,VALID,0.491797,
2010-09-03, 00:33:05,VALID,1004.37,VALID,0,VALID,84.3602,VALID,0,VALID,26.9752,VALID,30,VALID,1.31367,
2010-09-03, 00:34:05,VALID,1004.39,VALID,0,VALID,84.2762,VALID,0,VALID,26.9557,VALID,104,VALID,0.89375,
2010-09-03, 00:35:05,VALID,1004.38,VALID,0,VALID,84.0626,VALID,0,VALID,26.9947,VALID,34,VALID,1.4207,
2010-09-03, 00:36:05,VALID,1004.36,VALID,0,VALID,83.9863,VALID,0,VALID,27.0336,VALID,25,VALID,0.193359,
2010-09-03, 00:37:05,VALID,1004.37,VALID,0,VALID,83.9177,VALID,0,VALID,27.0142,VALID,110,VALID,2.07891,
2010-09-03, 00:38:05,VALID,1004.33,VALID,0,VALID,83.9024,VALID,0,VALID,26.9926,VALID,17,VALID,1.50664,
2010-09-03, 00:39:05,VALID,1004.4,VALID,0,VALID,83.7193,VALID,0,VALID,27.0747,VALID,49,VALID,0.642578,
2010-09-03, 00:40:05,VALID,1004.38,VALID,0,VALID,83.7117,VALID,0,VALID,27.0747,VALID,48,VALID,1.34687,
2010-09-03, 00:41:05,VALID,1004.4,VALID,0,VALID,83.7498,VALID,0,VALID,27.0531,VALID,101,VALID,1.13125,
2010-09-03, 00:42:05,VALID,1004.36,VALID,0,VALID,83.7727,VALID,0,VALID,27.0552,VALID,66,VALID,0.644531,
2010-09-03, 00:43:05,VALID,1004.36,VALID,0,VALID,83.8719,VALID,0,VALID,27.0336,VALID,5,VALID,0.475391,
2010-09-03, 00:44:05,VALID,1004.37,VALID,0,VALID,84.0397,VALID,0,VALID,26.9947,VALID,68,VALID,0.685156,
2010-09-03, 00:45:05,VALID,1004.33,VALID,0,VALID,84.1923,VALID,0,VALID,26.9537,VALID,94,VALID,0.941797,
2010-09-03, 00:46:05,VALID,1004.33,VALID,0,VALID,84.2228,VALID,0,VALID,26.9752,VALID,105,VALID,0.857813,
2010-09-03, 00:47:05,VALID,1004.33,VALID,0,VALID,84.2,VALID,0,VALID,26.9947,VALID,100,VALID,1.5293,
2010-09-03, 00:48:05,VALID,1004.35,VALID,0,VALID,83.9177,VALID,0,VALID,27.0921,VALID,106,VALID,1.68828,
2010-09-03, 00:49:05,VALID,1004.33,VALID,0,VALID,83.6049,VALID,0,VALID,27.1311,VALID,90,VALID,0.861328,
2010-09-03, 00:50:05,VALID,1004.36,VALID,0,VALID,83.4218,VALID,0,VALID,27.1311,VALID,101,VALID,1.04883,
2010-09-03, 00:51:05,VALID,1004.33,VALID,0,VALID,82.9336,VALID,0,VALID,27.2285,VALID,106,VALID,2.5918,
2010-09-03, 00:52:05,VALID,1004.32,VALID,0,VALID,82.5597,VALID,0,VALID,27.2869,VALID,130,VALID,1.35781,
2010-09-03, 00:53:05,VALID,1004.3,VALID,0,VALID,82.4835,VALID,0,VALID,27.3064,VALID,103,VALID,0.433594,
2010-09-03, 00:54:05,VALID,1004.33,VALID,0,VALID,82.247,VALID,0,VALID,27.3064,VALID,114,VALID,2.64531,
2010-09-03, 00:55:04,VALID,1004.27,VALID,0,VALID,82.0868,VALID,0,VALID,27.3454,VALID,112,VALID,1.79688,
2010-09-03, 00:56:04,VALID,1004.28,VALID,0,VALID,81.7511,VALID,0,VALID,27.4059,VALID,110,VALID,2.32734,
2010-09-03, 00:57:04,VALID,1004.23,VALID,0,VALID,81.4764,VALID,0,VALID,27.4233,VALID,74,VALID,1.72695,
2010-09-03, 00:58:04,VALID,1004.23,VALID,0,VALID,81.2934,VALID,0,VALID,27.4428,VALID,87,VALID,2.49648,
2010-09-03, 00:59:04,VALID,1004.22,VALID,0,VALID,81.2399,VALID,0,VALID,27.4623,VALID,120,VALID,1.46914,
2010-09-03, 01:00:04,VALID,1004.28,VALID,0,VALID,81.2705,VALID,0,VALID,27.4428,VALID,109,VALID,1.45859,
2010-09-03, 01:01:04,VALID,1004.24,VALID,0,VALID,81.2399,VALID,0,VALID,27.4039,VALID,108,VALID,1.69727,
2010-09-03, 01:02:04,VALID,1004.25,VALID,0,VALID,81.1865,VALID,0,VALID,27.4018,VALID,117,VALID,2.57891,
2010-09-03, 01:03:04,VALID,1004.27,VALID,0,VALID,81.0721,VALID,0,VALID,27.4818,VALID,91,VALID,1.7207,
2010-09-03, 01:04:04,VALID,1004.25,VALID,0,VALID,80.9729,VALID,0,VALID,27.4839,VALID,103,VALID,2.18594,
2010-09-03, 01:05:04,VALID,1004.24,VALID,0,VALID,80.9958,VALID,0,VALID,27.4408,VALID,104,VALID,2.29414,
2010-09-03, 01:06:04,VALID,1004.22,VALID,0,VALID,80.9806,VALID,0,VALID,27.4623,VALID,104,VALID,1.30313,
2010-09-03, 01:07:04,VALID,1004.17,VALID,0,VALID,80.9882,VALID,0,VALID,27.4623,VALID,95,VALID,2.0168,
2010-09-03, 01:08:04,VALID,1004.12,VALID,0,VALID,81.1179,VALID,0,VALID,27.4428,VALID,111,VALID,1.04062,
2010-09-03, 01:09:04,VALID,1004.1,VALID,0,VALID,81.2857,VALID,0,VALID,27.3844,VALID,73,VALID,1.55742,
2010-09-03, 01:10:04,VALID,1004.07,VALID,0,VALID,81.0645,VALID,0,VALID,27.4039,VALID,105,VALID,1.18359,
2010-09-03, 01:11:04,VALID,1004.08,VALID,0,VALID,81.1713,VALID,0,VALID,27.4039,VALID,125,VALID,1.93281,
2010-09-03, 01:12:04,VALID,1004.1,VALID,0,VALID,81.0416,VALID,0,VALID,27.4039,VALID,107,VALID,1.8457,
2010-09-03, 01:13:04,VALID,1004.12,VALID,0,VALID,80.6373,VALID,0,VALID,27.4839,VALID,114,VALID,2.7918,
2010-09-03, 01:14:04,VALID,1004.06,VALID,0,VALID,80.3169,VALID,0,VALID,27.4818,VALID,118,VALID,2.27031,
2010-09-03, 01:15:04,VALID,1004.09,VALID,0,VALID,80.1032,VALID,0,VALID,27.5013,VALID,113,VALID,3.01953,
2010-09-03, 01:16:04,VALID,1004.06,VALID,0,VALID,79.6379,VALID,0,VALID,27.5792,VALID,124,VALID,2.37695,
2010-09-03, 01:17:04,VALID,1004.07,VALID,0,VALID,79.2717,VALID,0,VALID,27.6377,VALID,106,VALID,2.625,
2010-09-03, 01:18:04,VALID,1004.05,VALID,0,VALID,79.1344,VALID,0,VALID,27.6356,VALID,96,VALID,2.6293,
2010-09-03, 01:19:04,VALID,1004.07,VALID,0,VALID,79.142,VALID,0,VALID,27.6161,VALID,122,VALID,1.93008,
2010-09-03, 01:20:04,VALID,1004.03,VALID,0,VALID,79.203,VALID,0,VALID,27.6182,VALID,57,VALID,1.78555,
2010-09-03, 01:21:04,VALID,1004.05,VALID,0,VALID,79.203,VALID,0,VALID,27.6182,VALID,92,VALID,2.09492,
2010-09-03, 01:22:04,VALID,1004.06,VALID,0,VALID,79.142,VALID,0,VALID,27.6377,VALID,104,VALID,1.98242,
2010-09-03, 01:23:04,VALID,1004.04,VALID,0,VALID,79.2183,VALID,0,VALID,27.6356,VALID,99,VALID,1.07891,
2010-09-03, 01:24:04,VALID,1004.01,VALID,0,VALID,79.5006,VALID,0,VALID,27.5966,VALID,37,VALID,1.27344,
2010-09-03, 01:25:04,VALID,1003.97,VALID,0,VALID,79.5082,VALID,0,VALID,27.6182,VALID,91,VALID,2.12344,
2010-09-03, 01:26:04,VALID,1003.98,VALID,0,VALID,79.7599,VALID,0,VALID,27.6182,VALID,62,VALID,1.13203,
2010-09-03, 01:27:04,VALID,1003.99,VALID,0,VALID,79.9049,VALID,0,VALID,27.5792,VALID,116,VALID,0.812891,
2010-09-03, 01:28:04,VALID,1003.95,VALID,0,VALID,80.21,VALID,0,VALID,27.5403,VALID,116,VALID,0.8125,
2010-09-03, 01:29:04,VALID,1003.91,VALID,0,VALID,80.4542,VALID,0,VALID,27.5229,VALID,98,VALID,1.15078,
2010-09-03, 01:30:04,VALID,1003.91,VALID,0,VALID,80.5991,VALID,0,VALID,27.5013,VALID,88,VALID,1.53516,
2010-09-03, 01:31:04,VALID,1003.87,VALID,0,VALID,80.6678,VALID,0,VALID,27.4818,VALID,90,VALID,1.79766,
2010-09-03, 01:32:04,VALID,1003.89,VALID,0,VALID,80.7822,VALID,0,VALID,27.4623,VALID,93,VALID,0.840625,
2010-09-03, 01:33:04,VALID,1003.85,VALID,0,VALID,80.9195,VALID,0,VALID,27.4428,VALID,65,VALID,0.865234,
2010-09-03, 01:34:04,VALID,1003.82,VALID,0,VALID,81.1179,VALID,0,VALID,27.4039,VALID,74,VALID,0.941797,
2010-09-03, 01:35:04,VALID,1003.83,VALID,0,VALID,81.0645,VALID,0,VALID,27.4039,VALID,87,VALID,1.18438,
2010-09-03, 01:36:04,VALID,1003.78,VALID,0,VALID,81.1179,VALID,0,VALID,27.3823,VALID,57,VALID,2.04531,
2010-09-03, 01:37:04,VALID,1003.83,VALID,0,VALID,81.2247,VALID,0,VALID,27.3649,VALID,99,VALID,1.12109,
2010-09-03, 01:38:04,VALID,1003.77,VALID,0,VALID,81.1942,VALID,0,VALID,27.3454,VALID,89,VALID,1.43398,
2010-09-03, 01:39:04,VALID,1003.8,VALID,0,VALID,81.2171,VALID,0,VALID,27.3865,VALID,90,VALID,1.56641,
2010-09-03, 01:40:04,VALID,1003.79,VALID,0,VALID,81.1103,VALID,0,VALID,27.3865,VALID,98,VALID,0.794531,
2010-09-03, 01:41:04,VALID,1003.77,VALID,0,VALID,81.0492,VALID,0,VALID,27.3865,VALID,84,VALID,1.3582,
2010-09-03, 01:42:04,VALID,1003.74,VALID,0,VALID,80.9729,VALID,0,VALID,27.4059,VALID,97,VALID,0.933203,
2010-09-03, 01:43:04,VALID,1003.72,VALID,0,VALID,80.8738,VALID,0,VALID,27.3844,VALID,72,VALID,1.16602,
2010-09-03, 01:44:04,VALID,1003.71,VALID,0,VALID,80.6678,VALID,0,VALID,27.4039,VALID,97,VALID,2.5457,
2010-09-03, 01:45:04,VALID,1003.69,VALID,0,VALID,80.6983,VALID,0,VALID,27.4233,VALID,116,VALID,1.44453,
2010-09-03, 01:46:04,VALID,1003.69,VALID,0,VALID,80.6678,VALID,0,VALID,27.3844,VALID,109,VALID,1.32227,
2010-09-03, 01:47:04,VALID,1003.71,VALID,0,VALID,80.7822,VALID,0,VALID,27.3844,VALID,95,VALID,1.85859,
2010-09-03, 01:48:04,VALID,1003.7,VALID,0,VALID,80.5762,VALID,0,VALID,27.4233,VALID,104,VALID,1.52578,
2010-09-03, 01:49:04,VALID,1003.7,VALID,0,VALID,80.5381,VALID,0,VALID,27.4254,VALID,89,VALID,1.43984,
2010-09-03, 01:50:04,VALID,1003.67,VALID,0,VALID,80.4847,VALID,0,VALID,27.4449,VALID,106,VALID,1.58984,
2010-09-03, 01:51:04,VALID,1003.62,VALID,0,VALID,80.4542,VALID,0,VALID,27.3844,VALID,91,VALID,1.22812,
2010-09-03, 01:52:04,VALID,1003.63,VALID,0,VALID,80.4084,VALID,0,VALID,27.3844,VALID,115,VALID,2.17578,
2010-09-03, 01:53:04,VALID,1003.62,VALID,0,VALID,80.4465,VALID,0,VALID,27.4254,VALID,106,VALID,1.28437,
2010-09-03, 01:54:04,VALID,1003.61,VALID,0,VALID,80.4008,VALID,0,VALID,27.4059,VALID,106,VALID,1.52578,
2010-09-03, 01:55:04,VALID,1003.59,VALID,0,VALID,80.3703,VALID,0,VALID,27.3844,VALID,106,VALID,1.88437,
2010-09-03, 01:56:04,VALID,1003.5,VALID,0,VALID,80.4999,VALID,0,VALID,27.3649,VALID,90,VALID,1.09258,
2010-09-03, 01:57:04,VALID,1003.53,VALID,0,VALID,80.4771,VALID,0,VALID,27.3475,VALID,86,VALID,1.32148,
2010-09-03, 01:58:04,VALID,1003.5,VALID,0,VALID,80.5152,VALID,0,VALID,27.3475,VALID,87,VALID,2.07891,
2010-09-03, 01:59:04,VALID,1003.46,VALID,0,VALID,80.3397,VALID,0,VALID,27.3865,VALID,115,VALID,1.90586,
2010-09-03, 02:00:04,VALID,1003.45,VALID,0,VALID,80.1872,VALID,0,VALID,27.3454,VALID,110,VALID,2.26836,
2010-09-03, 02:01:04,VALID,1003.46,VALID,0,VALID,80.1338,VALID,0,VALID,27.3865,VALID,86,VALID,1.86758,
2010-09-03, 02:02:04,VALID,1003.42,VALID,0,VALID,79.8439,VALID,0,VALID,27.3844,VALID,105,VALID,2.32305,
2010-09-03, 02:03:04,VALID,1003.42,VALID,0,VALID,79.9202,VALID,0,VALID,27.3865,VALID,106,VALID,1.94687,
2010-09-03, 02:04:04,VALID,1003.42,VALID,0,VALID,79.6989,VALID,0,VALID,27.4059,VALID,114,VALID,2.46758,
2010-09-03, 02:05:04,VALID,1003.45,VALID,0,VALID,79.7294,VALID,0,VALID,27.4254,VALID,104,VALID,1.68164,
2010-09-03, 02:06:04,VALID,1003.45,VALID,0,VALID,79.5692,VALID,0,VALID,27.4039,VALID,104,VALID,1.47187,
2010-09-03, 02:07:04,VALID,1003.45,VALID,0,VALID,79.5463,VALID,0,VALID,27.4254,VALID,127,VALID,1.95859,
2010-09-03, 02:08:04,VALID,1003.43,VALID,0,VALID,79.4624,VALID,0,VALID,27.4449,VALID,119,VALID,1.67383,
2010-09-03, 02:09:04,VALID,1003.44,VALID,0,VALID,79.3175,VALID,0,VALID,27.4428,VALID,80,VALID,1.64844,
2010-09-03, 02:10:04,VALID,1003.41,VALID,0,VALID,79.4548,VALID,0,VALID,27.4213,VALID,98,VALID,0.927344,
2010-09-03, 02:11:04,VALID,1003.41,VALID,0,VALID,79.6837,VALID,0,VALID,27.4039,VALID,87,VALID,1.38477,
2010-09-03, 02:12:04,VALID,1003.42,VALID,0,VALID,79.8896,VALID,0.100563,VALID,27.3649,VALID,117,VALID,1.2207,
2010-09-03, 02:13:04,VALID,1003.45,VALID,0,VALID,79.9202,VALID,0,VALID,27.3238,VALID,92,VALID,1.0918,
2010-09-03, 02:14:04,VALID,1003.43,VALID,0,VALID,79.8057,VALID,0,VALID,27.3454,VALID,109,VALID,2.32734,
2010-09-03, 02:15:04,VALID,1003.42,VALID,0,VALID,79.6837,VALID,0,VALID,27.3649,VALID,99,VALID,1.28477,
2010-09-03, 02:16:04,VALID,1003.35,VALID,0,VALID,79.6913,VALID,0.100563,VALID,27.3454,VALID,79,VALID,0.537891,
2010-09-03, 02:17:04,VALID,1003.37,VALID,0,VALID,79.8286,VALID,0,VALID,27.3259,VALID,103,VALID,1.30977,
2010-09-03, 02:18:04,VALID,1003.34,VALID,0,VALID,79.6684,VALID,0,VALID,27.3454,VALID,124,VALID,1.575,
2010-09-03, 02:19:04,VALID,1003.28,VALID,0,VALID,79.6913,VALID,0,VALID,27.3259,VALID,87,VALID,1.31133,
2010-09-03, 02:20:04,VALID,1003.28,VALID,0,VALID,79.6531,VALID,0,VALID,27.3454,VALID,87,VALID,1.23672,
2010-09-03, 02:21:04,VALID,1003.24,VALID,0,VALID,79.5692,VALID,0,VALID,27.3649,VALID,109,VALID,1.70352,
2010-09-03, 02:22:04,VALID,1003.2,VALID,0,VALID,79.6074,VALID,0,VALID,27.3454,VALID,88,VALID,1.525,
2010-09-03, 02:23:04,VALID,1003.19,VALID,0,VALID,79.676,VALID,0.100563,VALID,27.3238,VALID,91,VALID,1.43711,
2010-09-03, 02:24:04,VALID,1003.15,VALID,0,VALID,79.9202,VALID,0,VALID,27.3064,VALID,57,VALID,1.37266,
2010-09-03, 02:25:04,VALID,1003.15,VALID,0,VALID,79.8286,VALID,0.100563,VALID,27.3454,VALID,115,VALID,2.19531,
2010-09-03, 02:26:04,VALID,1003.17,VALID,0,VALID,79.8591,VALID,0,VALID,27.3259,VALID,121,VALID,0.806641,
2010-09-03, 02:27:04,VALID,1003.12,VALID,0,VALID,80.0193,VALID,0,VALID,27.3064,VALID,99,VALID,1.33047,
2010-09-03, 02:28:04,VALID,1003.14,VALID,0,VALID,80.1032,VALID,0,VALID,27.2869,VALID,74,VALID,0.961328,
2010-09-03, 02:29:04,VALID,1003.17,VALID,0,VALID,80.21,VALID,0,VALID,27.2264,VALID,88,VALID,1.00664,
2010-09-03, 02:30:04,VALID,1003.14,VALID,0,VALID,80.4999,VALID,0,VALID,27.2285,VALID,61,VALID,1.41523,
2010-09-03, 02:31:04,VALID,1003.15,VALID,0,VALID,80.7593,VALID,0,VALID,27.1895,VALID,20,VALID,1.06914,
2010-09-03, 02:32:04,VALID,1003.18,VALID,0,VALID,81.0797,VALID,0,VALID,27.1506,VALID,45,VALID,0.586328,
2010-09-03, 02:33:04,VALID,1003.2,VALID,0,VALID,81.3239,VALID,0,VALID,27.09,VALID,98,VALID,0.574609,
2010-09-03, 02:34:04,VALID,1003.23,VALID,0,VALID,81.6443,VALID,0,VALID,27.0531,VALID,86,VALID,0.874609,
2010-09-03, 02:35:04,VALID,1003.23,VALID,0,VALID,81.7358,VALID,0,VALID,27.0316,VALID,87,VALID,1.28906,
2010-09-03, 02:36:04,VALID,1003.24,VALID,0,VALID,81.7969,VALID,0,VALID,27.0511,VALID,84,VALID,1.37227,
2010-09-03, 02:37:04,VALID,1003.25,VALID,0,VALID,81.8579,VALID,0.100563,VALID,27.0511,VALID,76,VALID,1.07656,
2010-09-03, 02:38:04,VALID,1003.23,VALID,0,VALID,82.041,VALID,0,VALID,27.0316,VALID,35,VALID,0.462891,
2010-09-03, 02:39:04,VALID,1003.24,VALID,0,VALID,82.2622,VALID,0,VALID,27.0121,VALID,116,VALID,1.575,
2010-09-03, 02:40:04,VALID,1003.24,VALID,0,VALID,82.3995,VALID,0,VALID,27.0531,VALID,95,VALID,0.996875,
2010-09-03, 02:41:04,VALID,1003.2,VALID,0,VALID,82.3843,VALID,0,VALID,27.0336,VALID,100,VALID,1.49492,
2010-09-03, 02:42:04,VALID,1003.21,VALID,0,VALID,82.4682,VALID,0,VALID,27.0336,VALID,110,VALID,1.56523,
2010-09-03, 02:43:04,VALID,1003.23,VALID,0,VALID,82.247,VALID,0,VALID,27.0942,VALID,97,VALID,1.62148,
2010-09-03, 02:44:04,VALID,1003.22,VALID,0,VALID,81.8655,VALID,0,VALID,27.1506,VALID,113,VALID,1.7625,
2010-09-03, 02:45:04,VALID,1003.2,VALID,0,VALID,81.7129,VALID,0,VALID,27.17,VALID,89,VALID,1.08086,
2010-09-03, 02:46:04,VALID,1003.17,VALID,0,VALID,81.6367,VALID,0,VALID,27.1895,VALID,15,VALID,0.604688,
2010-09-03, 02:47:04,VALID,1003.16,VALID,0,VALID,81.6519,VALID,0,VALID,27.1916,VALID,106,VALID,1.96484,
2010-09-03, 02:48:04,VALID,1003.15,VALID,0,VALID,81.568,VALID,0,VALID,27.1506,VALID,72,VALID,1.25156,
2010-09-03, 02:49:04,VALID,1003.15,VALID,0,VALID,81.4764,VALID,0,VALID,27.2111,VALID,55,VALID,1.0668,
2010-09-03, 02:50:04,VALID,1003.15,VALID,0,VALID,81.3315,VALID,0,VALID,27.17,VALID,94,VALID,1.8457,
2010-09-03, 02:51:04,VALID,1003.18,VALID,0,VALID,81.3696,VALID,0,VALID,27.1916,VALID,89,VALID,1.20156,
2010-09-03, 02:52:04,VALID,1003.14,VALID,0,VALID,80.8585,VALID,0,VALID,27.209,VALID,74,VALID,2.35039,
2010-09-03, 02:53:04,VALID,1003.12,VALID,0,VALID,80.7364,VALID,0,VALID,27.248,VALID,106,VALID,1.01758,
2010-09-03, 02:54:04,VALID,1003.14,VALID,0,VALID,80.6449,VALID,0,VALID,27.248,VALID,109,VALID,1.33047,
2010-09-03, 02:55:04,VALID,1003.14,VALID,0,VALID,80.4999,VALID,0,VALID,27.248,VALID,111,VALID,2.15469,
2010-09-03, 02:56:04,VALID,1003.09,VALID,0,VALID,80.6373,VALID,0,VALID,27.248,VALID,102,VALID,1.53281,
2010-09-03, 02:57:04,VALID,1003.07,VALID,0,VALID,80.6144,VALID,0,VALID,27.2285,VALID,63,VALID,0.657422,
2010-09-03, 02:58:04,VALID,1003.09,VALID,0,VALID,80.1414,VALID,0,VALID,27.2869,VALID,121,VALID,2.97695,
2010-09-03, 02:59:04,VALID,1003.1,VALID,0,VALID,79.676,VALID,0,VALID,27.3865,VALID,97,VALID,1.37031,
2010-09-03, 03:00:04,VALID,1003.1,VALID,0,VALID,79.5769,VALID,0,VALID,27.4039,VALID,110,VALID,1.1957,
2010-09-03, 03:01:04,VALID,1003.1,VALID,0,VALID,79.7676,VALID,0,VALID,27.3454,VALID,44,VALID,0.676172,
2010-09-03, 03:02:04,VALID,1003.1,VALID,0,VALID,79.8591,VALID,0,VALID,27.3259,VALID,113,VALID,1.02305,
2010-09-03, 03:03:04,VALID,1003.11,VALID,0,VALID,79.9888,VALID,0,VALID,27.3064,VALID,108,VALID,1.77852,
2010-09-03, 03:04:04,VALID,1003.13,VALID,0,VALID,80.0956,VALID,0,VALID,27.2869,VALID,69,VALID,1.6375,
2010-09-03, 03:05:04,VALID,1003.09,VALID,0,VALID,79.9354,VALID,0,VALID,27.3259,VALID,73,VALID,1.56172,
2010-09-03, 03:06:04,VALID,1003.08,VALID,0,VALID,79.9659,VALID,0,VALID,27.3064,VALID,117,VALID,1.15898,
2010-09-03, 03:07:04,VALID,1003.13,VALID,0,VALID,80.1795,VALID,0,VALID,27.2675,VALID,87,VALID,1.59219,
2010-09-03, 03:08:04,VALID,1003.13,VALID,0,VALID,80.3016,VALID,0,VALID,27.2069,VALID,117,VALID,1.3793,
2010-09-03, 03:09:04,VALID,1003.16,VALID,0,VALID,80.4237,VALID,0,VALID,27.2306,VALID,60,VALID,1.10742,
2010-09-03, 03:10:04,VALID,1003.13,VALID,0,VALID,80.4389,VALID,0,VALID,27.1895,VALID,71,VALID,0.876953,
2010-09-03, 03:11:04,VALID,1003.11,VALID,0,VALID,80.5533,VALID,0,VALID,27.17,VALID,86,VALID,1.45703,
2010-09-03, 03:12:04,VALID,1003.06,VALID,0,VALID,80.683,VALID,0,VALID,27.17,VALID,134,VALID,2.06367,
2010-09-03, 03:13:04,VALID,1003.12,VALID,0,VALID,80.5228,VALID,0,VALID,27.209,VALID,37,VALID,0.95625,
2010-09-03, 03:14:04,VALID,1003.08,VALID,0,VALID,80.683,VALID,0,VALID,27.17,VALID,28,VALID,0.312109,
2010-09-03, 03:15:04,VALID,1003.06,VALID,0,VALID,80.9272,VALID,0,VALID,27.1136,VALID,54,VALID,0.921484,
2010-09-03, 03:16:04,VALID,1003.06,VALID,0,VALID,81.1179,VALID,0,VALID,27.0531,VALID,109,VALID,1.65313,
2010-09-03, 03:17:04,VALID,1003.08,VALID,0,VALID,81.3391,VALID,0,VALID,27.0357,VALID,95,VALID,0.907422,
2010-09-03, 03:18:04,VALID,1003.06,VALID,0,VALID,81.568,VALID,0,VALID,26.9947,VALID,107,VALID,1.17227,
2010-09-03, 03:19:04,VALID,1003.07,VALID,0,VALID,81.7282,VALID,0,VALID,26.9752,VALID,86,VALID,1.06094,
2010-09-03, 03:20:04,VALID,1003.11,VALID,0,VALID,81.8197,VALID,0,VALID,26.9557,VALID,68,VALID,0.764844,
2010-09-03, 03:21:04,VALID,1003.11,VALID,0,VALID,81.9647,VALID,0,VALID,26.9362,VALID,75,VALID,0.978125,
2010-09-03, 03:22:04,VALID,1003.12,VALID,0,VALID,82.0105,VALID,0,VALID,26.9167,VALID,82,VALID,1.29062,
2010-09-03, 03:23:04,VALID,1003.1,VALID,0,VALID,82.1096,VALID,0,VALID,26.8973,VALID,128,VALID,0.909375,
2010-09-03, 03:24:04,VALID,1003.07,VALID,0,VALID,82.2393,VALID,0,VALID,26.8778,VALID,70,VALID,1.43086,
2010-09-03, 03:25:04,VALID,1003.1,VALID,0,VALID,82.102,VALID,0.100563,VALID,26.9342,VALID,73,VALID,1.1707,
2010-09-03, 03:26:04,VALID,1003.07,VALID,0,VALID,81.8503,VALID,0.100563,VALID,26.9926,VALID,92,VALID,1.76406,
2010-09-03, 03:27:04,VALID,1003.06,VALID,0,VALID,81.69,VALID,0.100563,VALID,27.0101,VALID,81,VALID,1.67031,
2010-09-03, 03:28:04,VALID,1003.06,VALID,0,VALID,81.4993,VALID,0.100563,VALID,27.0316,VALID,101,VALID,0.845312,
2010-09-03, 03:29:04,VALID,1003.04,VALID,0,VALID,81.6061,VALID,0,VALID,27.0316,VALID,86,VALID,0.532812,
2010-09-03, 03:30:04,VALID,1003.02,VALID,0,VALID,81.7511,VALID,0.100563,VALID,27.0142,VALID,112,VALID,0.697656,
2010-09-03, 03:31:04,VALID,1003.03,VALID,0,VALID,81.7511,VALID,0.100563,VALID,26.9537,VALID,85,VALID,0.907031,
2010-09-03, 03:32:04,VALID,1002.99,VALID,0,VALID,81.8503,VALID,0.100563,VALID,26.9732,VALID,78,VALID,2.22852,
2010-09-03, 03:33:04,VALID,1002.93,VALID,0,VALID,81.6138,VALID,0.100563,VALID,26.9537,VALID,85,VALID,1.25352,
2010-09-03, 03:34:04,VALID,1002.97,VALID,0,VALID,81.5756,VALID,0.100563,VALID,26.9732,VALID,97,VALID,1.21602,
2010-09-03, 03:35:04,VALID,1002.96,VALID,0,VALID,81.5527,VALID,0.100563,VALID,26.9732,VALID,100,VALID,0.969922,
2010-09-03, 03:36:04,VALID,1002.97,VALID,0,VALID,81.2171,VALID,0.100563,VALID,27.0531,VALID,70,VALID,1.29805,
2010-09-03, 03:37:04,VALID,1002.97,VALID,0,VALID,81.0721,VALID,0.100563,VALID,27.0295,VALID,71,VALID,2.80273,
2010-09-03, 03:38:04,VALID,1002.96,VALID,0,VALID,80.9958,VALID,0.100563,VALID,27.0706,VALID,56,VALID,1.02891,
2010-09-03, 03:39:04,VALID,1002.93,VALID,0,VALID,81.1255,VALID,0.201126,VALID,27.0295,VALID,99,VALID,1.28242,
2010-09-03, 03:40:04,VALID,1002.95,VALID,0,VALID,81.2857,VALID,0,VALID,27.0142,VALID,101,VALID,1.41953,
2010-09-03, 03:41:04,VALID,1002.93,VALID,0,VALID,81.362,VALID,0,VALID,26.9947,VALID,76,VALID,1.29023,
2010-09-03, 03:42:04,VALID,1002.98,VALID,0,VALID,81.4612,VALID,0,VALID,26.9557,VALID,80,VALID,1.7043,
2010-09-03, 03:43:04,VALID,1002.98,VALID,0,VALID,81.423,VALID,0,VALID,26.9947,VALID,104,VALID,1.13086,
2010-09-03, 03:44:04,VALID,1001.67,VALID,0,VALID,81.4154,VALID,0,VALID,26.9947,VALID,92,VALID,1.29258,
2010-09-03, 03:45:04,VALID,1003.01,VALID,0,VALID,81.2705,VALID,0,VALID,27.0142,VALID,96,VALID,1.28477,
2010-09-03, 03:46:04,VALID,1002.97,VALID,0,VALID,81.3391,VALID,0,VALID,26.9947,VALID,65,VALID,0.649609,